Theta_e
317 320 322 324 324 324 326 325 324 323 323 323 322 324 324 324 324 322 321 320 319 318 318 319 321 321 320 318 320 321 322 323 325 325 326 325 325 326 327 327 328 328 328 327 327 327 326 320 312 313 315 314 315 315 316 319 319 320 328 328 325 330 329 327 326 322 323 320 317 318 318 319 318 317 317 318 319 321 320 322 323 323 326 327 328 324 323 332
314 318 320 323 324 324 326 325 322 322 323 322 322 323 324 325 325 324 322 321 320 320 319 319 321 322 320 319 319 321 323 324 325 326 326 326 326 326 327 328 328 328 328 328 328 327 328 324 315 313 315 314 315 316 317 319 318 321 329 326 327 335 328 320 321 319 319 318 316 317 318 319 318 317 317 317 318 320 321 324 326 327 330 331 331 328 325 330
313 315 319 322 323 323 325 325 323 322 322 321 320 321 323 324 325 325 323 322 321 322 321 320 321 322 321 319 319 320 322 324 324 325 326 326 327 327 327 328 327 328 328 328 328 327 327 326 319 313 314 314 315 317 318 319 318 319 322 327 333 331 320 316 317 318 319 318 317 317 317 318 318 317 317 316 316 318 320 323 327 332 334 334 333 331 328 330
314 314 317 321 323 323 323 325 324 323 322 321 319 320 322 324 325 326 324 322 322 323 322 321 321 322 321 320 320 320 321 323 324 325 326 326 327 327 327 327 327 327 328 327 327 327 326 326 321 314 314 314 314 316 318 318 319 318 319 328 331 320 317 318 316 318 319 318 317 317 317 317 317 317 316 316 317 316 318 319 323 328 329 331 334 332 329 329
316 315 317 319 322 324 323 324 324 323 322 321 319 319 322 323 324 326 325 323 322 323 324 322 321 322 322 320 320 320 321 324 325 323 324 326 326 327 327 326 327 326 327 327 326 327 326 326 323 315 313 314 314 315 317 318 319 318 318 322 321 315 318 318 315 318 318 317 318 316 317 318 316 317 316 316 318 316 316 317 317 318 319 323 328 330 330 329
316 316 317 319 321 323 323 323 324 324 322 321 320 319 321 323 324 326 326 323 322 324 324 323 321 322 322 321 321 321 323 325 325 323 324 326 326 326 327 326 327 326 326 327 326 327 325 324 322 315 313 314 314 315 316 317 318 319 319 317 316 316 317 316 315 317 318 317 317 316 317 317 316 316 315 315 317 316 316 317 317 316 316 316 319 324 327 328
315 317 317 319 321 322 322 323 324 324 322 322 320 319 320 323 324 326 326 324 323 323 324 324 323 322 323 323 323 323 324 324 323 324 324 324 326 326 326 325 326 326 326 326 326 326 325 322 319 314 313 313 313 314 314 316 317 319 320 317 316 316 316 315 316 316 318 318 317 317 317 316 316 316 315 316 316 316 317 317 317 317 317 316 317 319 321 322
314 317 317 319 322 321 320 322 323 323 323 321 320 319 320 322 324 325 326 325 323 323 324 325 324 323 322 323 324 323 323 323 320 323 325 324 325 325 325 325 325 326 325 325 325 326 325 321 316 314 314 313 313 314 314 316 317 318 319 316 315 315 316 315 315 316 318 318 317 317 316 315 316 316 315 316 316 315 316 318 317 318 318 317 316 317 318 319
313 316 317 319 322 321 320 322 322 323 323 321 320 319 320 322 323 325 326 325 323 323 324 325 325 324 323 324 324 322 323 323 319 320 323 324 324 324 325 325 325 325 325 325 325 326 324 320 316 314 313 313 314 314 314 316 317 318 318 316 314 314 315 315 315 316 316 316 317 316 315 314 315 316 316 315 316 315 315 318 319 319 320 318 316 316 317 317
312 315 318 318 320 321 321 321 322 323 322 321 320 319 321 321 323 325 325 325 324 323 323 325 325 325 325 323 322 322 323 323 320 319 321 323 323 324 325 324 324 324 325 325 324 325 323 320 320 314 312 314 313 313 314 315 317 318 316 315 314 314 314 314 314 315 316 315 315 317 315 314 314 315 316 315 315 315 316 319 321 321 321 320 318 316 315 316
312 314 317 318 320 321 321 322 323 322 321 321 320 319 321 321 322 324 325 325 325 323 323 324 324 324 324 321 321 321 320 322 321 319 319 321 322 324 324 324 324 324 324 324 324 325 323 321 321 314 312 314 313 314 315 315 317 316 315 315 314 313 314 314 314 315 315 316 315 316 315 314 315 315 316 316 315 315 316 320 322 321 320 320 319 317 315 315
312 313 316 319 320 322 322 323 323 322 321 320 320 320 321 321 322 324 325 325 325 324 322 324 324 324 323 320 320 319 319 319 319 319 320 320 321 323 324 324 324 324 324 324 324 323 321 321 318 312 312 313 312 313 314 315 316 316 316 316 314 314 314 314 314 314 315 315 315 315 315 316 316 316 316 315 315 315 315 319 322 321 319 318 318 317 316 315
312 312 314 318 320 322 322 323 322 320 319 320 321 320 320 322 323 324 325 325 325 324 323 324 324 323 322 320 319 318 318 319 316 317 320 321 321 321 321 321 321 321 323 323 323 321 318 317 313 311 313 313 312 312 313 314 315 316 316 316 316 314 315 315 313 315 315 315 315 315 318 322 319 315 315 315 315 315 314 315 318 319 318 318 318 317 316 315
311 312 313 317 319 321 322 322 322 320 318 319 321 321 320 322 324 324 324 324 324 323 323 324 323 322 321 320 320 318 318 320 316 314 317 320 319 317 316 317 316 318 319 320 321 319 316 314 312 312 312 312 312 312 313 314 315 316 315 315 319 317 316 316 313 315 315 314 314 314 319 325 321 315 315 315 315 315 315 314 314 315 316 318 320 319 318 317
310 312 312 316 319 320 322 322 321 320 319 320 321 322 321 321 323 323 323 323 323 323 323 323 322 321 320 319 319 319 318 319 318 314 314 317 316 315 314 314 315 315 316 317 318 317 314 312 312 311 311 312 312 311 312 315 315 316 317 317 318 318 317 316 313 314 315 314 313 314 318 322 319 314 314 314 315 315 314 314 315 314 314 317 319 320 320 319
308 311 312 315 318 321 322 322 320 319 319 320 321 323 322 322 323 323 323 323 323 323 322 322 321 320 320 319 319 320 318 318 319 316 313 314 313 313 313 312 314 315 315 316 316 315 312 311 312 311 311 312 311 312 313 315 316 316 319 322 319 318 318 316 315 314 314 314 313 314 317 320 317 313 313 313 314 315 314 315 316 315 314 316 318 320 320 322
307 310 312 315 319 322 322 321 319 318 319 322 321 321 322 322 322 322 321 321 322 321 320 321 320 319 318 317 318 320 319 317 318 317 314 313 313 312 312 312 314 314 314 314 314 314 311 311 312 311 311 312 311 313 314 315 317 316 318 321 322 319 317 317 316 315 313 314 314 314 316 319 317 312 313 314 313 314 314 315 316 316 315 315 318 320 321 322
307 309 312 315 319 322 322 320 319 318 320 323 323 322 322 321 321 320 319 319 319 317 317 318 318 319 319 316 317 320 320 318 317 316 315 313 312 312 312 312 313 313 313 313 313 313 312 311 312 311 311 312 311 312 315 316 317 318 317 319 321 318 316 318 316 316 315 315 315 314 315 318 317 312 312 314 313 314 314 315 315 316 316 316 317 319 320 322
307 309 312 315 320 323 322 319 318 319 321 322 322 322 321 319 319 318 318 317 316 314 314 315 317 319 320 317 317 320 322 319 314 314 314 313 312 312 312 313 313 312 312 315 315 312 312 313 312 311 311 311 311 311 315 318 317 320 319 319 323 319 317 318 317 316 315 315 316 315 315 317 317 314 312 313 313 313 314 315 314 314 316 316 316 316 318 319
307 308 312 316 321 322 321 319 318 320 321 321 320 320 318 317 317 316 315 316 315 313 312 314 317 315 315 317 317 319 321 317 313 313 313 313 312 312 312 312 312 312 314 316 316 312 313 314 312 311 311 311 312 311 314 316 315 319 319 319 322 320 318 317 317 315 313 315 316 315 315 315 316 316 313 312 313 313 312 313 314 314 315 315 315 315 316 316
307 309 313 318 322 322 320 319 319 320 321 320 320 319 318 316 317 315 314 315 315 313 311 315 316 311 312 316 317 320 319 314 312 313 313 312 312 312 312 311 312 315 315 314 314 313 313 314 312 311 311 311 312 312 313 313 313 316 318 317 319 321 319 315 315 315 313 314 316 314 315 315 316 316 313 311 312 312 312 312 313 314 314 315 315 315 315 315
308 310 314 320 322 322 320 318 319 320 320 320 319 319 318 317 317 317 315 314 312 310 312 315 313 310 312 314 316 319 316 312 312 312 312 312 312 312 312 312 313 315 315 313 314 315 313 313 311 310 311 311 312 313 313 313 312 315 318 318 318 321 319 314 315 316 314 314 316 315 315 315 317 316 312 310 311 312 313 313 314 314 315 315 315 315 315 315
309 311 316 321 322 320 319 319 319 320 319 319 319 318 317 316 316 317 316 315 311 309 312 313 309 310 313 313 314 315 313 312 312 312 312 312 313 312 312 312 312 313 313 313 314 314 313 312 311 311 311 311 312 312 312 313 312 316 318 317 318 320 319 316 315 315 315 314 315 317 317 316 316 317 315 311 312 314 314 314 315 315 315 315 315 315 315 315
310 313 319 322 321 319 319 320 319 319 319 319 318 317 316 315 315 317 315 313 311 310 311 312 310 311 313 313 314 312 311 312 312 312 312 312 313 312 312 312 311 312 312 312 313 312 312 312 310 311 311 311 312 312 313 312 312 318 320 317 318 319 319 318 315 314 314 313 314 316 316 319 318 316 317 315 312 313 314 314 314 315 316 315 315 315 315 316
311 317 321 320 319 319 319 320 319 319 319 317 317 316 315 314 315 316 313 312 313 310 310 311 311 311 312 313 313 312 311 312 312 313 312 312 312 312 312 312 312 312 312 311 311 311 312 311 311 312 312 312 312 312 315 315 314 318 320 320 318 317 319 319 316 316 314 314 317 314 313 325 328 317 314 315 312 313 313 312 313 314 315 315 315 315 314 315
315 320 320 317 318 319 319 319 318 319 318 317 317 316 315 315 315 315 313 312 313 310 309 310 311 312 313 313 313 312 312 312 313 313 312 312 312 312 312 312 312 312 312 311 311 312 313 310 311 313 313 314 314 313 317 318 316 316 318 321 318 316 322 320 316 319 318 316 317 313 314 324 327 320 317 315 313 315 314 312 313 314 315 315 315 316 315 315
319 320 318 317 318 319 319 318 317 318 317 317 316 315 315 314 314 315 313 313 313 310 309 309 311 312 312 313 312 311 312 312 312 312 312 312 312 312 312 311 312 312 312 312 312 313 313 311 312 315 315 315 314 314 316 317 316 319 319 319 318 318 322 318 316 323 325 319 315 315 317 316 316 321 321 315 313 314 316 315 313 313 315 316 315 316 316 316
321 318 317 317 318 319 318 318 317 317 317 316 315 315 316 314 314 314 314 315 314 309 309 309 310 311 312 313 312 311 312 312 313 313 312 312 312 312 312 311 311 312 312 312 313 313 313 313 315 316 315 315 314 316 320 318 315 320 322 319 319 318 319 319 318 324 324 318 316 317 316 313 321 329 319 313 314 314 315 317 314 312 314 315 316 316 316 316
319 318 317 317 318 318 318 317 317 317 317 315 315 316 315 312 314 314 314 316 312 308 309 309 310 312 312 312 311 311 312 312 313 313 312 313 313 312 312 312 311 313 313 312 315 317 314 313 313 316 317 317 317 318 323 323 315 317 320 320 321 320 319 319 322 327 320 315 321 322 315 312 324 333 319 311 316 315 315 316 312 310 313 315 315 315 315 315
318 317 317 317 318 317 317 317 316 316 316 314 314 316 314 312 314 314 315 315 311 309 309 309 311 312 311 311 312 312 311 312 312 312 312 313 312 312 312 313 311 315 319 316 316 317 313 310 312 314 315 315 317 316 318 321 315 315 321 322 321 323 327 328 332 330 317 318 329 326 317 312 317 328 323 314 317 317 314 315 314 311 313 315 315 315 315 315
318 317 317 317 317 316 316 316 316 316 315 314 314 315 313 312 313 315 315 313 311 310 308 309 311 312 311 311 312 312 312 312 311 312 313 312 312 312 312 313 313 316 320 318 316 315 313 315 315 313 310 310 316 317 315 316 316 320 326 322 318 322 329 332 330 322 316 323 329 320 315 314 315 324 324 317 317 316 314 316 319 315 313 315 316 316 316 315
317 317 317 317 316 316 316 315 316 316 314 314 314 313 313 313 313 314 313 312 312 310 309 310 312 311 311 312 313 313 313 312 311 312 313 312 312 312 312 314 314 314 315 315 316 316 316 320 317 314 311 310 316 319 316 316 319 323 322 318 319 321 321 323 322 320 320 322 318 314 315 316 317 319 319 317 316 315 313 314 317 314 313 315 315 315 315 314
316 316 316 316 315 315 315 315 316 315 313 314 313 311 312 314 315 314 311 312 313 310 309 311 312 311 311 312 313 313 313 313 312 312 312 312 312 312 314 315 314 316 317 316 316 316 317 318 317 316 314 311 314 317 316 318 320 318 315 316 323 322 315 315 318 319 321 319 313 312 315 317 318 317 316 316 314 312 312 312 313 314 315 315 314 314 314 314
315 315 315 315 315 314 315 315 315 314 313 313 312 311 313 314 315 313 310 311 312 310 310 311 311 311 311 312 313 314 315 313 311 312 313 313 313 312 314 314 314 316 318 316 316 316 317 317 316 316 313 312 315 315 317 322 319 318 318 318 322 324 321 319 320 321 322 320 315 311 315 321 319 315 315 311 309 311 313 313 314 315 315 315 314 314 314 314
315 314 314 314 314 315 315 315 314 314 313 312 311 311 313 314 315 314 311 311 310 310 310 311 311 312 312 313 313 314 316 314 312 312 313 313 313 312 313 313 313 314 315 315 315 315 316 316 317 316 311 312 316 314 316 319 318 320 320 319 320 323 328 325 322 327 326 319 316 313 318 324 317 312 312 308 308 311 312 313 314 314 314 314 314 314 314 315
315 314 314 313 314 314 314 314 314 314 313 311 310 312 313 313 314 314 311 310 310 310 311 312 312 312 313 315 314 314 315 314 313 313 313 313 313 313 313 313 313 313 313 314 314 315 314 315 317 316 312 312 313 312 313 314 318 320 318 321 323 319 326 324 314 318 320 318 318 315 317 320 314 313 312 309 311 311 310 312 313 314 315 314 314 314 315 315
314 313 313 313 313 313 313 314 315 314 312 310 310 313 313 312 313 313 311 310 310 310 311 312 312 312 314 315 315 315 315 315 313 313 313 313 313 312 312 313 313 312 313 313 313 315 316 316 315 315 314 312 309 310 311 311 315 321 318 320 320 315 320 324 315 313 315 319 322 315 314 318 315 317 315 310 312 312 310 311 310 312 314 314 314 315 315 316
313 313 313 312 312 312 311 314 314 313 311 310 312 313 313 313 313 312 311 310 311 311 311 312 312 311 313 314 314 314 315 314 313 313 313 313 314 313 311 312 313 312 313 312 312 316 319 318 314 314 316 314 312 312 314 311 312 318 318 316 318 318 319 320 317 315 314 316 320 315 314 317 316 319 319 312 313 313 310 310 311 312 312 312 314 315 315 316
312 313 313 312 312 311 312 314 313 312 312 312 312 314 317 318 314 310 310 310 311 311 311 312 312 311 313 313 313 314 314 314 313 313 314 313 314 314 311 312 313 312 311 312 315 317 317 319 317 313 314 315 315 315 317 316 312 313 314 312 316 322 322 319 317 318 318 317 319 316 314 320 322 321 321 318 316 313 310 311 312 311 311 313 314 314 314 315
312 312 312 312 312 312 313 313 312 312 313 312 312 316 319 319 314 310 310 311 311 311 312 312 311 312 314 313 313 314 315 315 313 313 315 313 313 313 311 312 313 313 312 313 318 318 315 318 319 314 312 314 316 316 317 318 314 314 315 313 314 315 318 319 317 320 324 322 322 317 315 329 330 317 317 320 316 312 309 311 311 309 312 314 313 314 314 314
311 312 312 312 312 313 312 312 312 312 312 311 312 317 317 316 313 310 310 311 311 312 313 312 312 313 314 314 314 314 315 315 314 314 316 313 313 314 312 311 313 313 313 315 318 320 317 317 317 315 314 315 317 315 313 315 315 315 314 314 316 315 316 318 315 318 320 320 326 322 319 334 331 312 313 316 312 309 307 308 309 309 312 314 313 314 314 313
311 312 312 312 312 313 312 312 311 311 312 311 312 316 315 315 314 311 311 311 312 314 313 312 312 313 313 313 314 314 315 315 313 315 316 313 313 316 314 311 312 312 313 317 318 318 318 318 317 316 316 316 316 312 308 311 315 315 314 315 318 317 318 319 319 322 317 313 322 322 318 333 329 311 311 313 308 307 306 306 308 309 312 314 313 314 313 313
311 312 312 311 312 312 311 311 310 310 312 313 313 314 314 315 314 313 312 312 314 316 313 312 312 312 313 314 314 315 315 314 314 316 317 314 313 314 312 311 313 312 313 317 317 316 317 318 318 316 315 315 316 313 310 311 314 314 316 317 317 317 320 325 326 326 319 313 317 315 314 330 328 310 306 307 305 307 307 307 309 310 312 314 314 314 313 313
311 312 311 311 312 311 310 311 310 310 313 315 315 315 314 314 315 314 313 313 316 317 314 312 312 312 313 314 314 314 314 315 315 316 318 317 313 311 310 310 313 313 312 315 315 315 317 318 317 317 316 316 318 316 313 313 314 316 319 318 318 319 320 320 319 317 317 320 319 316 318 328 326 312 307 309 308 308 307 308 309 311 313 314 314 313 313 312
311 311 311 311 311 311 311 311 310 310 313 316 316 317 316 316 316 314 313 315 316 317 316 313 313 313 315 314 313 313 315 317 317 316 319 319 313 310 309 310 312 312 312 313 312 314 321 321 318 318 317 316 317 316 315 316 315 316 318 316 317 321 316 316 318 315 317 321 317 317 322 324 320 315 313 313 312 309 308 308 310 311 313 314 314 313 313 313
310 311 312 312 311 312 312 312 311 310 313 316 316 316 317 318 317 314 315 317 316 317 318 316 314 314 314 314 313 313 314 317 317 317 317 318 315 311 309 310 311 311 312 313 310 315 323 321 317 317 316 314 315 315 316 319 316 315 318 316 317 319 316 318 321 318 320 321 317 318 321 317 316 318 316 315 316 314 310 308 310 312 313 314 314 313 313 313
310 311 312 312 312 312 312 312 312 311 313 314 314 315 315 318 317 315 316 317 315 316 319 317 315 315 314 313 314 314 314 316 317 316 316 317 316 311 308 310 311 310 312 311 310 317 322 318 316 317 315 314 315 315 316 317 315 315 317 317 316 317 317 318 318 316 318 319 317 319 319 315 317 322 322 320 320 317 310 307 310 313 312 314 314 313 313 313
309 310 311 311 312 312 312 312 312 311 312 314 314 314 315 317 317 316 317 317 314 316 319 317 314 315 314 313 314 314 314 316 316 315 316 316 314 312 310 310 309 309 312 311 311 317 319 317 317 317 315 316 317 316 316 316 314 314 315 315 316 316 317 317 316 316 318 316 314 316 317 316 317 320 323 320 316 314 310 308 311 313 313 313 313 313 313 313
308 309 310 310 311 311 311 311 311 311 313 314 314 314 315 316 316 316 318 318 315 316 318 317 315 315 314 314 314 314 314 314 314 314 315 314 313 314 314 313 311 309 310 312 312 314 315 317 318 316 314 317 319 317 316 315 315 315 315 315 315 315 316 316 316 315 316 316 315 315 316 316 316 317 319 316 312 310 309 308 310 312 313 313 313 313 313 313
306 307 308 309 310 310 309 311 312 312 312 314 314 313 313 315 316 316 317 316 316 317 317 316 316 316 315 314 314 314 313 314 315 315 314 312 312 314 314 315 314 310 311 313 312 310 312 316 316 315 313 315 318 318 317 317 316 316 317 316 315 315 315 315 315 315 315 315 316 315 316 316 314 313 313 313 311 310 308 307 309 312 314 313 313 313 313 312
304 304 306 309 311 310 310 312 313 312 312 313 313 313 313 314 315 317 317 316 315 316 316 316 317 316 314 315 315 315 313 314 316 313 312 312 312 312 314 314 312 313 314 315 313 313 316 317 316 316 315 315 316 318 318 318 316 315 317 317 316 315 315 314 314 314 314 315 315 315 315 315 313 311 312 311 310 308 307 307 308 311 313 314 313 313 313 313
305 305 307 310 312 311 311 313 313 312 312 312 312 312 312 313 315 317 317 315 314 314 314 315 316 315 315 315 316 315 312 312 313 311 310 311 310 310 312 312 310 313 315 314 316 319 321 320 318 318 317 314 314 316 319 317 315 314 316 317 315 314 314 313 314 314 314 314 315 315 313 312 313 314 314 313 310 308 308 309 308 310 312 314 314 314 313 313
Wind_Speed
33 27 30 34 37 39 40 42 42 39 36 35 34 35 35 34 34 34 32 32 31 32 33 32 30 29 29 32 33 32 33 32 30 29 29 32 33 30 27 26 21 19 23 22 18 14 8 3 4 3 2 3 4 5 6 5 5 4 3 2 2 3 3 5 6 7 7 6 9 14 15 13 7 10 16 13 16 17 13 12 11 9 9 9 11 16 24 27
38 31 30 32 35 38 37 39 42 40 36 35 34 34 36 35 35 34 34 33 31 32 34 33 31 30 30 34 35 33 32 30 26 24 25 27 30 29 26 25 21 20 23 22 20 17 14 5 3 1 4 7 6 5 5 5 6 5 3 2 4 4 4 4 6 12 11 10 13 14 15 16 13 14 16 9 12 17 13 11 12 13 14 14 18 20 22 27
39 36 32 33 35 37 37 38 41 41 38 36 35 35 35 36 36 35 35 35 32 32 33 33 31 31 31 34 36 36 33 27 22 23 25 23 24 26 25 24 21 21 22 20 21 19 17 9 1 3 7 9 7 5 5 4 5 7 4 2 5 5 4 4 6 15 17 20 18 14 15 16 16 16 14 11 12 13 10 11 12 17 20 20 23 24 23 26
36 40 36 33 36 37 39 39 39 40 39 36 36 36 35 36 35 35 36 36 33 31 32 34 32 31 31 33 36 36 32 20 20 27 25 21 21 23 25 24 21 22 21 18 18 18 17 12 5 5 9 9 9 7 6 6 5 5 6 4 5 3 3 4 2 12 21 27 24 16 13 13 17 16 14 16 11 4 12 17 14 17 23 23 25 25 23 24
32 39 37 33 35 37 38 39 38 38 37 36 36 37 37 36 36 35 36 36 35 32 31 33 33 32 30 32 34 35 28 10 16 31 26 20 21 21 24 24 23 23 21 18 18 18 17 14 10 6 8 7 8 5 6 10 9 3 6 9 5 3 2 4 1 13 23 25 22 15 11 13 17 15 16 18 9 5 13 18 16 17 21 20 23 24 23 24
29 35 36 33 35 36 37 38 38 37 36 36 36 38 38 37 37 36 35 37 36 33 31 32 34 33 30 31 32 32 27 6 7 29 29 22 22 22 24 24 24 25 25 22 19 19 16 11 10 7 8 7 6 4 6 12 12 4 4 8 5 3 3 4 1 14 23 23 19 14 15 17 15 11 14 14 9 9 12 16 18 15 16 17 19 22 22 23
30 33 35 34 36 37 37 38 39 38 36 36 35 37 39 38 37 36 35 36 37 35 32 31 32 34 32 31 30 29 29 11 3 21 29 25 23 23 25 24 24 25 26 26 21 19 17 11 9 5 7 8 8 6 10 12 14 8 4 4 4 4 6 4 2 14 23 22 18 16 18 16 12 9 9 10 9 10 9 13 19 16 16 18 17 18 18 20
31 32 34 35 37 38 37 38 40 38 36 36 35 36 40 40 38 36 35 35 37 36 33 32 31 34 35 34 30 23 25 18 6 15 25 24 24 25 26 26 25 25 25 27 24 20 20 14 9 6 4 8 11 8 11 10 9 9 5 4 5 5 9 5 3 14 21 19 18 17 14 12 11 10 10 12 11 11 9 11 17 20 19 18 16 15 15 18
32 33 35 35 37 38 38 38 39 39 37 36 35 37 40 41 39 37 36 35 37 37 35 34 32 34 35 35 30 17 21 25 11 11 21 23 24 24 27 27 27 27 25 26 24 22 24 18 12 10 6 13 15 13 13 7 5 9 10 8 7 5 9 9 4 13 17 16 18 13 8 8 10 8 8 11 12 11 11 12 17 21 21 19 16 15 15 16
35 33 35 36 36 38 39 39 40 39 37 36 36 37 40 41 40 37 37 35 37 39 37 35 34 36 34 31 26 12 20 30 16 10 16 21 25 24 25 26 28 29 28 27 23 24 27 22 19 13 10 15 15 16 14 6 6 11 12 9 7 5 7 9 5 9 14 13 15 12 5 6 8 6 4 11 16 14 14 16 18 20 20 19 16 15 15 15
36 35 35 37 37 39 41 40 41 41 38 37 37 38 40 41 40 37 36 35 38 40 39 37 33 33 32 29 24 10 15 26 19 13 13 17 24 26 26 26 28 30 33 31 25 26 25 24 23 11 10 10 12 16 13 11 12 12 15 9 5 4 4 7 6 9 11 7 10 12 6 3 4 3 5 14 20 17 17 19 19 19 18 18 16 15 16 16
38 37 36 37 38 39 42 42 42 41 38 37 37 39 41 40 40 38 37 36 37 40 40 37 31 31 32 27 22 14 15 20 15 13 15 16 22 25 26 25 26 29 34 34 29 25 21 25 21 10 12 11 12 12 10 11 12 18 15 6 2 1 2 6 7 7 8 5 10 14 5 2 2 5 9 18 22 19 19 21 21 19 17 17 16 16 17 17
39 39 37 39 39 40 43 43 42 39 37 38 38 40 42 42 41 39 38 35 34 38 39 36 30 34 32 21 19 15 15 19 14 11 15 18 22 22 21 22 21 24 30 32 31 25 23 28 16 14 21 17 12 10 12 12 9 15 8 5 4 0 3 7 7 5 5 6 11 11 2 4 6 11 12 19 24 20 18 20 22 20 19 18 17 17 17 17
40 41 39 39 41 42 44 42 40 39 37 38 39 40 43 42 39 37 35 31 30 32 35 33 30 34 30 18 19 18 14 20 18 13 16 21 23 21 17 17 15 19 24 27 30 27 26 29 14 17 23 19 16 16 15 9 7 8 3 3 4 3 3 6 6 6 5 5 8 7 2 5 7 11 14 20 23 21 20 20 21 21 20 20 20 19 19 19
41 42 41 39 41 42 44 43 40 40 39 40 41 43 44 42 38 34 31 29 29 30 33 33 31 31 25 15 18 21 16 18 21 18 18 21 23 22 20 17 14 17 22 25 29 29 29 25 11 17 18 18 17 14 7 3 3 3 4 3 2 4 3 4 5 8 5 3 6 4 2 5 6 7 15 20 22 21 22 20 19 21 21 22 22 22 22 21
43 43 43 40 40 42 44 44 41 41 41 41 43 44 43 42 37 33 31 30 28 29 32 31 32 29 18 10 16 23 19 17 24 22 18 21 21 21 23 17 15 17 21 24 26 30 31 17 14 18 17 14 10 6 3 3 3 3 4 4 3 5 3 2 4 8 5 3 3 2 3 3 4 7 14 17 20 21 20 20 19 18 20 23 24 24 24 23
46 45 44 42 42 44 46 45 43 43 42 42 44 43 41 39 37 34 33 32 28 26 29 29 32 25 9 8 15 26 27 20 24 25 20 21 20 22 25 18 17 20 22 22 22 30 28 10 13 13 13 9 5 4 4 4 5 3 3 3 4 5 5 3 2 6 6 4 4 3 3 4 5 8 16 17 19 19 18 20 20 19 19 22 25 25 26 25
48 45 46 44 44 47 48 47 46 43 43 45 46 45 41 37 36 33 32 32 29 23 21 24 28 16 5 14 19 29 36 25 23 27 25 22 21 25 25 19 22 22 19 17 17 27 21 10 10 7 6 6 6 5 5 6 5 4 5 4 2 3 6 6 3 5 7 4 5 5 3 7 7 5 15 18 19 19 20 20 20 22 21 20 23 26 27 28
50 47 48 46 47 51 49 49 47 42 45 46 47 49 43 40 36 31 30 31 28 18 8 19 28 8 3 20 26 30 38 28 21 27 28 24 24 28 26 24 26 23 18 12 11 21 16 9 8 7 7 7 8 7 6 6 6 7 7 5 5 4 4 5 3 5 8 6 5 7 7 8 6 6 11 17 19 20 22 21 19 22 23 22 22 24 25 27
52 49 50 48 50 54 51 52 48 47 53 51 52 51 41 35 24 19 30 32 31 18 2 20 31 1 6 22 30 30 34 24 19 26 27 26 30 30 28 28 26 19 13 7 8 17 14 7 8 10 8 7 8 7 8 8 6 7 7 5 6 6 4 4 3 3 5 6 6 9 8 7 7 7 10 17 18 17 19 19 20 22 24 24 24 23 23 24
54 51 52 51 55 56 55 55 52 55 60 56 58 49 39 35 17 20 34 27 27 18 2 22 27 2 3 26 33 35 33 17 16 25 25 31 34 26 23 25 17 9 9 9 9 14 13 8 10 12 8 7 7 7 8 10 7 4 6 7 6 6 4 3 2 2 0 3 5 5 5 7 8 8 11 14 13 14 21 20 22 24 24 25 25 25 24 21
56 54 55 56 59 60 59 57 55 59 59 58 57 43 40 38 23 36 40 19 15 10 7 27 19 2 10 24 30 37 33 18 17 28 31 36 32 21 19 18 10 6 9 11 9 9 10 9 13 13 10 8 8 8 10 9 7 4 4 7 6 5 3 1 3 3 3 1 4 2 5 8 8 7 9 14 15 18 26 26 25 26 25 26 27 26 25 23
58 57 58 61 64 63 61 60 60 61 59 60 52 36 36 30 23 41 37 16 10 6 14 28 11 6 19 23 28 33 28 21 21 30 38 36 27 26 25 15 9 9 9 10 9 7 7 9 15 15 12 11 9 8 11 9 5 4 4 6 5 5 5 1 2 3 3 1 1 2 4 6 6 5 6 16 23 22 26 29 27 27 26 26 27 27 26 25
60 60 62 67 67 63 61 63 64 61 60 56 41 32 34 25 24 39 30 13 6 4 17 25 9 11 24 24 30 31 23 21 24 32 40 35 26 27 23 15 12 9 8 11 11 8 6 9 16 14 11 13 10 8 10 8 4 4 6 6 5 7 6 2 3 2 3 2 1 5 2 6 5 6 7 12 18 18 23 27 27 28 28 25 25 26 27 26
63 63 65 67 64 64 65 65 63 59 57 47 33 32 32 21 22 34 25 9 2 1 9 19 9 9 22 23 25 29 20 16 23 35 40 36 32 26 17 16 14 7 10 13 10 8 8 12 15 12 10 12 10 7 8 8 4 4 5 6 9 11 7 6 7 5 4 3 3 4 1 6 4 7 10 8 8 11 16 21 26 30 28 27 27 27 27 27
66 67 68 65 63 67 65 59 58 56 51 40 33 36 32 22 25 33 22 6 0 2 4 15 11 9 21 20 22 27 15 9 21 35 37 33 33 29 16 12 11 7 11 12 7 4 6 9 9 9 11 12 9 7 7 8 5 2 5 5 9 11 9 11 10 6 4 4 4 3 5 5 5 5 10 7 7 10 10 12 20 27 27 27 27 26 27 28
70 69 67 64 67 72 63 53 54 54 48 38 34 38 34 30 33 32 16 3 2 6 7 12 11 13 21 23 29 23 8 12 21 30 37 29 26 29 19 10 9 9 11 9 5 3 2 5 6 7 9 9 8 6 6 8 7 3 5 4 10 11 10 11 10 5 3 3 2 3 4 3 5 6 7 5 8 9 8 8 12 20 24 25 25 24 25 26
71 68 66 67 71 71 61 57 60 58 51 42 39 40 37 37 36 24 8 2 5 7 10 13 13 16 20 26 31 15 10 24 18 21 37 28 20 23 16 11 10 11 12 9 4 2 2 5 6 7 6 7 7 4 5 8 6 4 4 6 9 10 10 9 8 4 2 3 1 4 3 2 5 7 5 1 6 6 9 10 10 16 22 23 23 23 23 24
72 69 68 70 70 63 55 57 60 53 47 44 43 42 42 42 30 12 2 4 5 7 12 14 13 15 18 21 20 11 19 24 12 21 35 24 18 17 12 16 16 9 9 9 6 3 3 3 4 4 4 5 5 3 4 7 4 4 5 7 5 5 7 6 5 5 3 2 5 7 3 3 5 6 3 1 3 6 9 9 9 15 21 23 23 23 23 24
72 70 69 70 67 55 48 50 47 41 44 48 46 45 46 37 18 6 5 6 4 6 12 14 12 15 17 13 8 9 15 11 13 27 25 15 17 16 14 23 21 7 2 4 5 3 3 0 1 1 2 3 5 3 1 3 6 7 7 7 7 6 5 4 3 5 3 2 6 6 3 3 3 5 4 4 5 7 7 6 6 11 17 20 21 21 21 21
71 70 70 70 64 53 49 49 42 42 50 51 48 49 41 20 4 4 9 7 6 5 9 11 9 12 17 12 6 9 7 4 16 25 15 8 11 11 12 17 14 6 3 3 3 2 3 2 1 2 3 2 3 4 5 2 5 7 6 5 5 3 4 4 4 3 3 5 5 4 1 4 3 5 4 5 6 6 7 7 6 10 15 19 18 18 18 18
69 70 69 67 58 50 50 50 47 50 53 52 51 45 27 8 3 4 6 9 8 5 7 11 11 12 16 12 6 7 5 4 13 17 11 7 6 7 8 7 8 7 5 6 3 1 1 2 3 3 4 3 2 3 4 4 2 5 5 6 6 2 2 1 2 1 4 5 3 3 1 2 5 7 7 7 8 6 7 10 12 16 19 18 16 15 15 15
68 68 66 61 51 45 48 49 52 55 53 54 51 32 12 7 8 5 6 8 7 8 11 13 15 16 15 11 6 6 5 5 11 13 10 7 6 6 5 4 10 8 4 6 5 3 1 4 4 2 3 3 2 3 3 1 0 5 7 6 5 4 3 3 4 2 3 3 3 3 2 2 4 6 8 9 9 8 6 9 16 21 22 18 15 14 13 12
67 67 62 55 45 42 47 51 55 56 52 50 38 17 8 9 7 6 8 7 5 10 11 11 15 16 12 9 7 7 5 3 9 11 9 8 7 7 5 6 11 8 4 5 5 6 5 2 2 2 1 1 2 2 4 5 4 4 5 6 6 5 5 4 4 3 4 2 2 3 1 4 3 4 6 6 4 4 5 10 16 19 19 17 15 13 12 12
67 64 55 48 42 41 47 53 56 55 51 39 19 8 10 10 5 6 8 6 6 9 10 12 16 14 9 5 6 7 4 3 8 8 8 9 8 9 7 7 11 9 7 6 4 5 7 3 2 1 1 1 2 2 1 6 4 3 3 6 4 5 5 4 4 6 5 1 1 2 3 4 4 4 4 2 3 5 8 12 16 17 17 16 15 14 14 14
64 57 46 40 41 40 44 54 55 51 47 30 10 6 8 7 6 7 8 9 10 13 15 14 12 10 7 4 5 7 2 4 9 7 6 8 7 10 8 6 10 10 8 7 3 4 7 3 4 3 2 1 0 3 2 2 3 1 3 4 5 4 7 5 2 1 4 2 2 2 3 4 3 3 3 3 2 2 4 8 14 17 17 17 17 17 17 16
58 49 40 37 40 39 44 54 52 47 40 20 7 9 6 4 6 7 9 13 17 19 18 12 8 9 10 6 7 10 4 5 10 7 7 7 6 11 10 7 10 11 9 8 4 3 6 2 3 1 1 2 2 3 3 2 2 4 3 5 4 3 4 5 2 2 4 2 3 2 4 4 2 3 4 3 3 5 4 5 9 14 16 17 18 18 18 18
51 43 38 37 40 40 45 51 48 42 29 10 7 9 4 3 5 8 13 17 19 18 14 10 8 7 11 10 9 12 9 8 9 6 7 6 4 10 13 9 10 13 13 11 6 3 5 3 2 1 1 3 4 1 1 3 2 4 3 3 4 3 2 2 3 2 2 3 4 3 3 3 3 4 4 4 8 9 7 6 7 10 15 18 19 19 19 19
46 36 29 34 41 42 46 48 44 35 17 6 8 7 3 3 5 14 24 21 16 15 11 9 10 7 8 10 10 11 9 8 10 7 6 6 3 8 15 9 8 14 16 12 6 4 5 4 2 2 1 2 3 2 4 3 1 1 1 2 2 3 4 3 3 4 3 4 4 2 2 3 6 6 6 9 12 11 10 8 7 12 18 21 22 22 21 20
43 24 16 36 46 44 48 45 36 23 8 6 7 3 3 4 5 21 36 27 13 9 8 9 11 10 8 9 10 10 7 6 10 7 3 6 4 5 13 10 7 12 13 9 5 4 4 3 2 1 2 1 1 1 4 5 3 1 2 2 1 1 2 2 1 3 4 4 3 2 1 5 6 4 7 10 10 10 11 9 9 15 21 23 24 24 23 22
38 13 12 39 45 43 47 35 20 12 5 6 5 2 4 4 6 19 33 31 15 4 7 10 10 10 10 10 10 10 7 7 10 7 3 8 6 3 11 14 10 11 9 5 4 4 2 3 5 3 1 2 3 3 2 3 3 3 3 5 5 3 3 3 3 2 2 3 4 4 2 7 6 3 5 7 6 7 13 13 12 18 23 24 25 24 23 23
26 6 16 40 41 44 44 21 9 10 5 5 4 2 6 7 8 14 21 26 15 3 7 8 6 8 9 9 9 8 7 6 9 8 3 7 8 3 11 19 18 17 12 5 3 4 4 4 5 2 2 4 3 3 1 1 1 2 1 2 4 4 4 5 5 3 1 1 2 4 2 6 6 3 4 6 6 7 14 17 16 19 25 25 25 24 23 23
17 13 24 36 38 46 36 10 6 8 3 5 4 2 5 5 8 12 13 16 10 4 7 6 6 10 7 6 9 9 8 6 7 8 4 5 7 2 9 22 23 18 11 4 3 4 4 4 4 2 1 2 4 3 1 1 1 1 2 2 4 3 3 5 5 3 2 3 2 3 2 5 6 5 5 6 6 3 12 20 20 20 23 25 25 25 24 25
22 25 27 32 38 42 25 7 11 11 5 4 4 3 4 4 7 12 12 10 7 6 7 5 8 11 6 7 10 12 11 6 4 6 4 5 7 1 6 23 25 15 9 8 8 7 3 3 4 4 2 2 3 2 2 1 2 3 3 2 3 4 5 4 2 3 1 4 5 5 5 6 6 5 5 5 5 2 8 18 21 22 24 25 26 26 26 27
22 20 20 30 37 32 14 4 9 11 5 6 7 7 6 3 3 10 13 8 3 6 7 6 10 10 7 8 8 8 10 6 5 6 3 3 4 2 4 20 24 16 12 15 17 12 5 3 4 6 6 6 5 6 5 3 2 1 0 2 4 5 8 5 2 3 2 4 5 6 5 7 6 5 5 5 4 1 4 11 17 21 24 27 28 28 29 29
13 7 10 19 22 18 8 4 5 7 6 7 7 6 7 5 2 6 11 6 2 6 6 5 10 10 7 10 9 8 8 2 3 6 4 5 3 2 2 12 15 13 13 18 23 15 4 2 6 8 9 10 10 8 6 7 6 5 6 8 8 8 9 7 4 4 5 3 4 6 7 7 6 6 5 5 3 3 4 7 14 18 24 28 30 30 31 32
7 8 11 11 10 10 7 7 5 6 8 8 7 5 8 9 4 3 5 2 4 9 5 2 9 11 11 14 12 10 9 3 4 8 7 5 2 1 3 5 7 9 10 16 22 13 3 3 7 9 10 10 9 8 9 11 13 14 14 14 11 9 8 8 7 8 6 5 5 9 7 7 7 6 7 7 5 5 6 10 17 21 25 29 30 31 32 32
5 10 16 13 8 8 9 9 9 9 9 8 6 5 9 11 9 6 2 2 5 8 5 3 11 15 17 18 12 9 9 4 4 8 6 4 4 3 3 3 3 3 4 11 15 8 4 6 7 7 8 6 5 8 10 11 11 12 13 14 13 11 10 10 12 10 7 7 10 12 9 8 7 7 8 8 8 9 13 17 19 20 25 28 30 32 32 32
4 7 13 12 5 4 9 9 9 11 10 7 4 6 13 14 11 6 3 4 5 3 3 8 11 13 17 17 12 10 11 9 8 8 6 6 6 5 4 2 1 1 2 5 6 2 3 5 4 6 7 3 2 6 10 11 8 7 10 12 12 13 14 15 15 13 11 10 13 10 7 8 8 8 9 10 11 11 11 15 17 19 25 29 31 32 34 34
4 4 7 9 4 7 12 10 8 10 7 5 5 6 11 14 12 7 2 5 9 5 4 11 13 11 13 14 13 12 15 15 12 9 8 7 5 4 5 4 3 1 2 3 2 1 1 3 2 5 5 1 2 2 5 8 8 7 8 9 10 12 13 14 14 13 9 9 11 6 5 9 7 9 11 12 11 8 8 14 20 23 26 29 31 33 34 36
5 4 7 8 3 7 11 6 6 9 6 5 6 6 9 12 13 9 3 1 7 7 6 11 13 9 8 11 12 13 14 13 13 17 19 16 14 10 4 6 9 7 3 3 2 2 2 1 1 5 5 3 3 4 5 4 4 4 5 9 13 14 12 13 12 9 8 9 10 6 7 10 6 8 10 10 8 11 13 18 21 23 25 29 31 33 35 37
8 7 10 10 3 5 10 5 5 10 8 7 7 6 7 9 9 10 6 3 3 7 13 16 14 9 7 9 10 11 15 16 18 25 26 21 19 12 7 12 18 13 7 4 2 2 4 4 2 3 5 3 3 2 6 7 4 4 7 11 16 14 11 8 6 7 9 10 8 8 10 10 4 6 9 6 7 12 16 19 21 22 26 30 32 33 35 36
Wind_Direction
228 226 221 218 217 210 199 199 200 200 197 194 196 199 200 200 200 199 200 199 198 199 200 200 199 201 201 198 196 195 196 193 191 192 195 199 201 202 205 206 203 195 194 199 200 202 211 92 81 147 63 331 269 243 217 194 176 143 112 138 245 243 230 225 190 171 152 155 176 172 164 148 128 126 124 122 129 123 118 122 120 130 128 139 149 154 168 173
224 228 224 219 217 210 200 199 199 198 198 196 197 200 201 201 201 200 199 199 198 200 200 199 198 201 201 199 198 198 196 191 193 197 194 194 198 202 206 206 203 197 198 207 214 221 227 206 64 29 16 336 287 240 221 194 185 179 126 151 227 216 237 263 170 156 143 157 167 164 168 159 152 147 140 130 130 128 112 111 124 126 125 138 151 158 170 174
219 226 226 220 217 209 203 201 198 198 199 199 199 200 202 201 202 201 200 200 197 199 200 198 198 201 202 201 201 202 200 198 208 211 198 193 196 201 206 206 201 196 200 209 216 223 231 220 202 332 344 327 285 242 220 186 191 204 154 152 236 232 286 319 158 164 158 157 158 160 171 165 161 157 150 150 142 141 140 141 140 136 141 150 159 165 171 177
215 222 226 221 215 209 207 203 196 197 200 200 199 200 202 201 203 202 200 200 198 199 200 198 197 200 201 200 201 203 203 207 225 218 203 199 201 201 206 208 203 198 200 209 217 222 232 227 214 299 327 315 277 253 225 201 195 194 169 189 244 280 300 303 216 176 162 155 159 163 164 162 166 165 158 148 136 166 178 175 176 165 161 161 166 171 175 181
213 217 223 221 215 208 205 203 198 197 197 198 199 199 201 200 202 201 200 200 199 199 198 197 197 199 199 199 200 201 200 202 231 219 208 207 209 205 206 209 207 201 202 209 220 227 234 231 222 276 321 297 267 254 233 215 203 199 207 212 250 316 249 265 259 159 158 153 155 153 148 157 163 166 163 155 152 210 193 195 202 187 180 175 174 177 179 184
215 215 218 218 215 210 206 203 199 196 195 197 198 199 200 200 199 199 199 199 199 199 198 197 196 198 198 197 199 199 196 185 226 214 212 212 209 208 207 209 208 203 204 206 216 230 233 221 217 271 320 294 266 231 245 230 208 223 249 213 234 274 206 238 183 150 155 151 149 146 144 150 154 167 168 165 178 185 186 200 203 196 190 185 180 181 185 188
217 214 215 215 213 210 207 204 198 195 195 196 196 198 199 199 197 195 198 198 199 199 198 196 195 197 196 195 197 195 198 203 185 200 208 210 204 205 207 210 211 206 204 204 209 223 225 204 194 251 315 297 272 242 253 243 209 205 251 215 212 227 199 216 155 153 158 155 153 147 145 148 151 168 167 154 159 158 160 185 194 195 186 182 183 184 191 194
216 213 212 213 212 207 205 204 198 195 196 196 195 198 198 198 196 194 197 199 198 198 199 196 194 196 196 197 192 183 195 199 162 184 196 199 197 201 205 209 212 210 205 204 209 215 217 202 182 212 269 269 264 263 256 245 210 203 223 200 187 202 194 196 124 146 152 151 153 145 145 158 159 163 163 150 140 143 149 158 176 185 182 181 186 185 190 194
216 213 209 211 212 205 201 202 200 196 196 196 196 197 197 197 196 193 197 200 197 198 199 197 196 195 196 197 186 175 198 190 158 176 190 192 194 197 206 210 212 212 205 202 208 211 209 202 187 195 242 272 274 278 264 242 205 212 207 183 181 200 188 185 151 138 138 142 152 141 125 149 158 158 162 168 158 151 155 151 162 176 178 179 184 188 188 191
215 214 209 209 212 206 200 200 200 197 196 197 197 197 196 196 194 192 196 200 199 199 199 199 199 197 195 187 174 177 203 191 176 181 190 194 196 197 204 211 213 212 208 205 208 207 204 200 196 209 268 283 280 276 264 240 223 210 184 160 165 190 189 187 183 147 137 138 152 143 118 139 153 157 174 188 176 163 159 155 161 171 177 179 183 190 193 194
215 214 209 206 209 206 199 198 197 194 195 197 197 197 196 195 193 193 198 200 200 200 199 201 200 196 191 179 169 173 190 191 194 193 194 200 201 201 202 207 211 210 208 208 209 207 202 194 198 230 283 277 289 286 273 256 236 186 150 126 132 166 204 195 181 163 147 134 154 141 114 106 129 168 201 187 178 175 168 159 165 174 179 184 187 191 196 198
214 213 210 204 206 207 198 194 194 191 194 197 196 197 196 194 191 191 195 197 199 200 199 201 200 187 180 175 175 175 172 178 182 189 197 200 199 202 201 200 204 208 208 207 205 201 191 183 193 257 270 265 306 296 288 277 219 170 153 125 111 153 261 208 183 176 165 140 151 136 102 346 222 221 201 182 178 180 176 167 170 178 182 189 192 194 197 200
213 212 212 204 204 207 197 191 190 190 194 196 195 194 193 192 189 188 191 195 198 198 198 199 196 181 172 173 181 178 174 171 159 163 180 184 185 186 188 188 192 200 203 205 200 187 174 176 193 280 268 268 298 278 296 298 194 165 166 133 135 257 282 219 199 192 171 149 156 144 148 269 238 227 200 179 179 178 181 177 177 181 183 189 194 198 200 200
213 212 213 205 203 204 197 191 191 191 193 196 194 191 190 189 188 189 190 194 196 197 200 198 191 180 173 177 188 181 170 173 166 153 163 170 169 163 165 172 175 183 192 194 185 175 171 174 200 286 269 261 271 274 297 295 183 151 141 135 150 179 242 232 204 177 152 169 178 144 172 245 254 236 200 181 183 182 184 185 187 189 188 191 197 202 204 204
213 212 211 206 202 201 193 190 191 191 192 196 191 186 189 189 187 186 184 189 194 198 200 195 186 178 172 177 194 188 170 173 171 159 161 163 160 158 157 164 171 172 180 177 169 169 167 171 221 283 269 256 260 267 288 286 212 144 142 195 203 171 216 267 215 188 162 184 197 139 169 253 279 223 187 181 186 190 190 191 194 195 196 196 199 205 207 208
213 211 209 204 199 196 190 187 189 190 191 195 189 181 183 184 181 181 181 184 191 198 198 190 183 177 171 173 190 191 181 173 173 170 170 166 163 160 154 165 179 170 169 168 167 164 162 178 264 276 263 257 252 236 250 283 244 189 148 183 200 170 196 267 234 221 193 152 197 171 161 234 268 188 176 178 184 190 191 191 196 199 199 198 200 206 207 208
212 209 207 201 194 192 189 188 188 188 187 187 187 182 175 172 172 168 168 174 178 187 190 185 183 177 169 181 182 190 189 179 174 175 175 172 173 166 159 163 168 167 166 164 167 162 161 211 277 268 252 240 229 195 205 234 216 204 137 164 199 171 171 184 249 236 194 161 197 189 159 228 259 184 176 182 183 190 192 193 201 203 202 202 202 206 207 209
211 208 204 198 191 188 189 189 185 186 184 176 177 180 173 165 163 158 155 161 161 163 171 172 173 170 204 204 187 188 191 184 172 174 176 175 174 173 169 161 154 156 154 147 158 159 166 247 274 260 247 215 220 195 182 211 191 166 155 164 192 158 168 181 203 205 172 178 199 170 200 251 275 207 190 193 190 198 203 200 204 205 205 206 206 209 211 213
209 206 201 195 189 186 187 187 183 182 178 168 164 164 158 149 149 151 154 156 151 145 157 169 168 161 280 199 189 186 188 185 173 175 179 172 164 166 165 157 151 147 140 131 150 160 173 249 258 244 235 217 220 192 186 208 170 162 170 165 162 160 198 199 221 214 166 165 197 183 206 228 240 235 210 200 197 205 210 206 204 205 206 209 212 214 214 217
206 202 197 191 186 185 184 183 181 176 171 165 156 148 142 138 132 139 152 156 159 156 183 181 176 145 13 178 182 180 178 180 177 177 177 165 154 150 144 143 144 141 140 138 153 170 186 232 238 232 230 226 222 189 191 215 197 169 168 178 178 167 203 221 260 262 162 157 208 203 209 220 218 232 224 205 200 208 214 211 207 205 207 210 214 216 216 220
202 197 194 188 184 183 183 182 179 175 174 171 162 154 153 154 153 162 155 155 169 167 204 181 177 342 92 168 175 173 169 168 181 178 166 156 151 141 135 137 137 141 155 156 160 179 199 227 229 230 233 229 221 196 202 224 224 189 167 184 203 185 197 236 244 277 87 170 225 208 209 243 230 231 232 205 194 210 212 209 210 208 209 212 215 217 218 220
196 194 190 185 182 179 180 182 178 173 173 172 167 165 164 163 176 172 155 137 160 157 159 171 171 20 147 160 166 166 161 153 173 176 161 155 152 144 146 146 139 150 163 167 171 184 205 228 227 224 223 228 229 203 214 233 219 217 190 175 203 202 174 323 318 335 19 180 249 209 195 245 245 238 234 203 196 211 210 206 208 207 207 211 215 217 215 213
192 190 186 184 182 177 178 180 175 170 170 170 169 168 165 167 177 165 147 116 138 138 155 162 151 127 152 153 159 161 157 156 168 171 165 161 157 152 154 152 148 160 174 185 182 185 200 219 222 219 209 220 238 208 212 237 217 207 195 174 200 184 152 211 287 337 28 116 231 143 190 263 271 269 258 214 207 212 212 211 212 210 211 215 218 218 214 210
187 185 183 183 179 175 175 174 169 170 173 172 170 167 164 164 164 154 137 101 127 178 174 168 143 148 161 154 159 166 166 167 170 168 167 166 157 151 155 153 152 166 183 190 197 205 217 223 215 213 207 211 226 216 207 219 235 228 198 187 185 171 170 179 154 113 26 358 50 94 40 305 259 239 261 230 213 214 216 214 216 217 218 223 225 221 218 216
183 182 180 176 173 172 171 167 166 171 175 171 167 165 159 152 151 148 134 93 107 162 181 184 184 171 166 156 165 175 170 167 173 170 167 165 157 149 155 158 159 176 178 185 208 212 225 233 210 199 209 210 213 222 203 191 215 251 214 198 180 170 158 127 123 107 69 305 274 108 102 290 267 227 241 238 215 220 218 211 216 220 220 222 223 220 219 218
179 179 176 171 169 169 166 164 168 170 171 170 170 167 155 140 144 147 136 76 72 115 144 185 195 180 171 169 172 170 165 172 177 174 169 166 163 155 152 162 165 179 172 181 213 211 226 232 208 196 201 203 210 223 209 177 165 225 242 208 166 152 133 134 139 125 132 220 264 117 161 257 307 257 241 229 212 226 218 209 215 214 212 215 216 216 216 215
177 175 172 169 169 170 167 165 168 169 172 173 172 168 154 141 146 148 136 52 182 151 142 172 180 175 175 174 168 164 169 166 166 177 173 168 167 160 156 163 162 172 178 187 204 204 223 210 216 216 194 192 203 215 213 174 150 213 242 159 140 140 140 152 149 144 176 182 321 28 135 218 285 264 258 213 196 226 226 221 220 207 203 204 202 205 207 208
175 172 170 171 172 173 172 167 168 173 176 172 165 163 153 149 150 145 128 126 162 140 146 168 175 177 176 173 174 172 151 152 153 180 178 174 172 166 161 163 157 163 179 195 203 193 191 188 215 213 182 190 197 209 206 166 152 229 210 136 139 145 145 151 141 134 127 118 256 286 143 183 265 270 301 110 169 223 229 225 223 210 207 204 202 203 203 204
172 170 170 173 172 172 172 168 168 171 170 161 155 155 155 157 153 128 119 181 146 133 152 164 171 179 179 176 182 166 146 154 157 173 178 182 180 173 162 163 166 162 174 194 204 220 215 197 227 209 182 195 186 203 204 164 162 195 143 101 90 95 105 116 119 112 82 113 223 241 185 175 268 278 304 60 172 217 226 229 225 214 210 208 210 210 209 212
170 169 170 171 169 168 168 166 165 163 160 155 152 155 157 158 147 117 197 189 130 142 151 154 168 178 173 168 177 162 152 153 144 157 175 188 178 172 158 161 169 163 121 165 173 236 276 345 323 263 216 202 156 151 218 166 153 129 102 80 63 49 57 62 62 91 100 242 244 243 199 157 268 278 230 201 213 203 208 234 228 209 201 198 202 204 207 213
168 169 169 170 169 169 166 163 163 162 158 153 152 155 154 149 131 161 179 155 126 145 145 145 159 171 172 169 166 164 149 108 141 154 171 188 177 170 151 156 167 154 98 121 134 308 340 20 318 319 302 282 119 84 20 46 135 108 96 106 89 27 22 30 3 56 159 239 262 269 216 147 215 263 243 244 257 211 193 208 200 187 186 185 189 197 205 213
167 168 169 169 169 171 169 163 163 162 157 154 154 154 146 131 211 196 154 143 149 174 162 154 157 168 177 173 155 153 133 120 156 160 162 167 177 178 164 165 168 163 172 164 142 44 30 321 302 341 313 272 134 91 33 8 47 89 119 128 114 68 41 89 260 228 208 240 277 297 285 188 228 253 255 266 271 244 213 212 198 180 176 179 186 196 206 213
166 167 167 167 168 170 169 163 161 160 159 158 156 152 144 156 178 165 145 165 172 171 167 161 160 164 167 161 154 156 129 135 167 164 160 155 160 187 207 191 167 160 170 161 135 129 144 308 309 350 314 257 179 142 144 211 98 128 145 144 137 129 121 193 235 249 232 250 284 297 293 249 267 270 256 255 254 246 236 215 194 179 177 181 187 195 203 209
165 165 164 168 169 168 168 166 163 162 162 159 153 150 166 170 164 139 154 182 162 150 157 150 148 152 156 158 167 161 113 120 168 158 157 161 163 190 216 199 176 151 121 150 156 163 168 232 240 191 284 249 212 187 161 153 154 174 166 138 144 153 151 184 208 195 207 247 287 295 259 190 203 256 262 263 246 193 168 175 175 175 179 181 184 190 195 200
163 163 164 168 168 168 171 167 164 165 164 158 151 164 170 166 168 145 155 168 139 136 138 136 139 143 152 152 164 173 139 139 170 157 165 177 176 183 186 189 184 159 143 166 177 169 167 192 269 276 310 213 213 268 128 124 150 223 151 119 158 179 144 144 177 174 166 157 261 247 231 209 206 261 288 356 64 102 127 149 155 162 171 174 180 186 189 191
159 160 162 163 163 169 170 166 166 169 165 157 157 193 181 176 172 157 158 157 148 142 134 136 144 145 148 135 162 189 180 139 165 166 179 183 180 185 185 184 181 170 163 167 165 163 162 187 314 343 341 319 254 296 320 134 175 193 129 164 208 162 117 119 169 120 102 140 239 210 238 287 301 287 320 32 62 100 125 145 150 156 166 173 180 182 183 187
158 158 155 155 161 167 168 168 170 171 167 166 181 183 183 188 160 140 144 145 144 145 139 143 164 158 154 156 174 187 165 139 168 174 174 178 185 187 186 190 185 179 169 157 163 181 149 136 321 19 162 291 335 320 325 -0 111 120 156 203 193 112 94 110 132 32 71 176 263 216 213 268 271 249 311 333 238 228 213 185 163 163 170 176 179 180 183 186
154 151 146 151 163 168 170 174 174 168 169 188 203 183 165 160 155 127 133 140 142 147 147 151 166 170 167 165 171 179 166 158 175 176 169 178 201 182 178 187 190 185 176 159 162 190 138 118 310 332 204 280 346 31 251 336 42 136 176 177 126 138 191 125 136 164 152 204 266 277 243 242 202 215 262 245 227 225 219 207 187 180 180 177 177 179 183 185
146 142 140 153 166 172 176 177 172 167 175 210 198 195 159 141 157 142 143 144 144 151 157 160 160 163 171 163 157 169 170 165 169 171 172 182 218 187 179 181 186 187 182 166 164 189 150 137 241 288 271 271 359 54 183 231 319 59 68 69 84 139 170 172 160 157 158 195 233 283 322 258 231 215 199 210 219 209 198 201 198 193 186 180 179 180 183 186
145 140 145 160 167 175 177 172 166 168 197 208 185 207 166 149 157 151 150 149 149 159 165 165 161 154 156 157 153 163 166 153 164 175 184 175 181 198 188 181 174 181 178 159 150 168 148 129 171 259 349 137 183 220 191 191 192 144 104 146 188 118 127 161 183 136 130 157 191 187 265 266 251 208 192 215 223 204 195 196 196 194 189 184 183 184 185 187
147 136 154 166 170 174 169 162 165 181 206 194 192 247 168 138 136 153 154 152 153 160 150 153 157 149 147 155 159 167 158 146 167 175 168 174 172 199 197 185 165 163 165 149 151 164 141 126 143 150 140 170 219 252 219 211 199 166 169 183 184 161 126 151 226 230 115 142 174 161 212 269 257 201 203 228 238 217 201 192 188 193 190 186 187 188 188 187
148 128 162 171 174 170 164 158 179 188 190 193 202 184 150 128 135 154 155 154 153 123 128 136 137 141 148 154 155 160 148 147 176 175 154 182 175 169 194 183 166 161 164 163 173 158 113 102 115 126 192 204 253 276 238 258 217 128 193 194 158 146 125 146 202 225 137 173 165 127 157 273 264 237 237 253 273 246 208 194 187 189 190 188 188 189 188 187
136 117 155 172 172 166 164 163 175 181 235 208 175 127 140 124 137 151 153 155 154 128 134 136 140 151 160 154 148 155 154 150 179 172 137 166 175 178 186 174 163 161 166 161 171 157 111 95 104 84 335 319 322 314 321 345 96 139 237 188 152 170 147 147 177 169 156 194 158 124 227 268 274 278 282 283 304 280 201 195 189 185 188 190 189 188 187 186
121 117 143 166 168 168 170 177 172 182 219 179 139 124 137 107 134 154 159 160 154 141 142 146 155 155 154 151 154 164 164 155 176 175 140 153 178 209 168 168 164 164 177 179 176 172 141 111 119 113 93 2 341 297 282 283 197 201 225 183 143 121 111 118 141 105 146 211 162 154 227 253 270 300 323 326 341 19 185 194 191 185 185 188 188 188 188 187
119 115 139 160 168 174 186 209 177 176 176 149 148 156 140 90 126 152 153 152 137 134 137 146 148 135 119 135 142 159 165 153 162 172 135 129 168 2 160 173 172 171 183 181 169 161 152 152 141 133 156 182 198 206 203 196 187 201 211 161 160 147 143 159 159 128 212 237 154 159 222 251 281 315 330 335 352 34 171 185 191 190 188 189 189 189 190 190
135 126 134 155 174 190 220 257 193 173 168 152 153 163 139 122 117 131 135 135 104 118 116 130 133 117 120 138 136 161 176 143 131 161 144 143 167 341 162 175 177 174 177 172 163 152 124 170 172 168 180 187 194 200 175 139 146 186 199 187 189 191 176 160 138 166 197 195 181 210 220 233 272 295 291 292 280 233 216 183 187 192 191 190 191 192 193 193
159 169 158 154 173 198 230 254 221 184 179 165 160 169 147 141 145 106 104 108 152 131 89 90 143 141 155 154 148 169 172 109 112 152 147 144 149 26 120 141 155 161 161 165 163 149 106 201 192 185 193 196 189 185 167 160 176 193 195 191 192 190 170 162 191 207 175 149 224 240 217 213 249 257 250 257 237 220 230 205 194 196 194 192 192 192 192 193
168 174 176 164 153 185 201 210 201 182 174 168 155 146 146 148 155 155 106 65 148 140 90 123 169 166 163 159 155 161 155 117 141 163 151 137 135 112 87 62 87 139 149 166 167 148 131 195 199 186 197 207 181 169 168 175 188 194 191 191 189 178 168 182 208 210 161 166 229 235 211 208 227 231 234 233 212 206 214 209 201 198 196 193 191 191 192 195
124 143 174 172 158 159 145 139 162 171 167 160 145 150 160 160 158 154 119 111 148 169 127 153 177 171 162 159 150 152 166 165 172 181 162 143 146 132 112 93 64 22 68 147 164 140 141 189 194 168 174 198 177 177 180 179 183 194 196 194 186 181 185 195 210 211 190 201 230 234 233 241 227 214 230 239 233 230 220 206 199 198 198 195 193 194 195 198
115 118 163 168 139 118 120 111 140 165 167 154 154 168 165 161 157 148 115 146 163 188 164 158 168 163 158 160 155 170 187 175 164 173 154 135 154 165 155 166 166 89 71 121 148 33 136 194 183 129 144 229 351 85 163 174 177 189 197 191 180 186 198 205 215 216 201 222 247 256 284 277 236 201 226 246 241 226 204 197 200 202 200 196 195 198 199 202
119 116 143 148 111 133 143 133 143 159 177 178 169 172 167 166 162 145 65 44 158 166 158 148 148 140 144 162 169 181 183 162 150 163 163 161 170 175 173 168 157 144 128 136 132 69 84 169 67 92 144 233 344 73 107 99 112 179 208 191 182 188 201 208 215 210 191 213 241 250 259 261 230 182 216 234 203 190 200 202 203 203 201 199 200 203 205 207
114 118 136 133 92 155 157 141 148 168 183 180 166 165 163 166 163 144 119 27 65 138 146 144 140 135 146 173 188 186 175 167 163 165 167 168 167 159 142 154 156 152 144 135 113 106 125 128 93 116 161 242 321 116 118 82 88 231 233 196 188 193 195 199 223 230 207 202 213 223 235 244 216 177 211 213 174 197 213 210 208 207 204 205 209 211 212 213